Regional Weather Roundup
Issued by NWS Memphis, TN

Home | Current Version | Previous Version | Text Only | Print | Product List | Glossary On
Versions: 1 2 3 4 5 6 7 8 9 10 11 12 13 14 15 16 17 18 19 20 21 22 23 24 25 26 27 28 29 30 31 32 33 34 35 36 37 38 39 40 41 42 43 44 45 46 47 48 49 50
000
ASUS44 KMEG 262300
RWRMEG
MEMPHIS CWA HOURLY WEATHER ROUNDUP
NATIONAL WEATHER SERVICE MEMPHIS TN
500 PM CST FRI DEC 26 2014

...WEST TENNESSEE...

CITY           SKY/WX    TMP DP  RH WIND       PRES   REMARKS
MEMPHIS INTL   CLOUDY    53  39  59 SE10      30.13F
NWS MEMPHIS      N/A     52 N/A N/A MISG        N/A
JACKSON        MOCLDY    51  37  58 SE6       30.14F
LEXINGTON      CLEAR     46  37  71 S6        30.20F
SAVANNAH       CLEAR     46  39  76 CALM      30.21F
DYERSBURG      PTCLDY    52  30  43 SE10      30.14S
UNION CITY     CLEAR     48  39  71 SE9       30.13F
PARIS          CLEAR     46  36  66 S13       30.17S


...EASTERN ARKANSAS...

CITY           SKY/WX    TMP DP  RH WIND       PRES   REMARKS
JONESBORO      CLOUDY    52  40  63 S13       30.11S
WEST MEMPHIS   MOCLDY    50  40  68 SE9       30.12S
BATESVILLE     CLOUDY    54  39  58 SE9       30.07S
WALNUT RIDGE   CLOUDY    52  39  62 S12       30.09S
BLYTHEVILLE    PTCLDY    52  39  61 S15       30.13R
SEARCY         CLOUDY    54  47  77 SE7       30.09F
STUTTGART      CLOUDY    54  45  71 SE10      30.08F
PINE BLUFF     CLOUDY    54  47  77 SE10      30.08R
MONTICELLO     LGT RAIN  52  49  89 SE6       30.10R


...NORTH MISSISSIPPI...

CITY           SKY/WX    TMP DP  RH WIND       PRES   REMARKS
TUPELO         CLOUDY    51  41  68 MISG      30.20F
OLIVE BRANCH   MOCLDY    48  43  81 SE10      30.14F
TUNICA         CLOUDY    52  45  76 SE8       30.13F
STARKVILLE     FAIR      52  45  76 SE3       30.21S
GOLDEN TRIANGL MOCLDY    54  45  71 SE7       30.21S


...SOUTHEAST MISSOURI...

CITY           SKY/WX    TMP DP  RH WIND       PRES   REMARKS
WEST PLAINS    CLOUDY    49  39  68 S13G20    30.04S
POPLAR BLUFF   CLOUDY    52  42  69 S6        30.09F
CAPE GIRARDEAU CLOUDY    50  43  77 S5        30.11F


...NORTHWEST ALABAMA...

CITY           SKY/WX    TMP DP  RH WIND       PRES   REMARKS
MUSCLE SHOALS  CLOUDY    50  41  71 SE3       30.25F


...MIDDLE TENNESSEE...

CITY           SKY/WX    TMP DP  RH WIND       PRES   REMARKS
NASHVILLE      CLOUDY    48  37  65 S6        30.24S
CLARKSVILLE    CLOUDY    52  38  58 S8        30.19F


...WESTERN KENTUCKY...

CITY           SKY/WX    TMP DP  RH WIND       PRES   REMARKS
PADUCAH        MOCLDY    52  41  66 S8        30.12F
FORT CAMPBELL  CLOUDY    53  37  55 S7        30.18S


...CENTRAL ARKANSAS...

CITY           SKY/WX    TMP DP  RH WIND       PRES   REMARKS
LITTLE ROCK    CLOUDY    53  47  79 SE9       30.06F


SKY/WX REPORTED AS FAIR MEANS FEW OR NO CLOUDS BELOW
12 THOUSAND FEET.




USA.gov is the U.S. government's official web portal to all federal, state and local government web resources and services.